Regional Weather Roundup
Issued by NWS

Home | Current Version | Previous Version | Text Only | Print | Product List | Glossary On
Versions: 1 2 3 4 5 6 7 8 9 10 11 12 13 14 15 16 17 18 19 20 21 22 23 24 25 26 27 28 29 30 31 32 33 34 35 36 37 38 39 40 41 42 43 44 45 46 47 48 49 50
000
ASCA42 TJSJ 260610
RWRPR
PUERTO RICO/U.S. VIRGIN ISLANDS HOURLY WEATHER ROUNDUP
NATIONAL WEATHER SERVICE SAN JUAN PR
200 AM AST SUN APR 26 2015

PRZ001-004-260700-
PUERTO RICO

CITY           SKY/WX    TMP DP  RH WIND       PRES   REMARKS
SAN JUAN LMM   CLEAR     79  73  83 SE3       29.93F
PONCE          PTCLDY    75  70  83 NE6       29.90
CEIBA          CLOUDY    77  73  88 CALM      29.95F
$$

PRZ006-007-260700-
U.S. VIRGIN ISLANDS

CITY           SKY/WX    TMP DP  RH WIND       PRES   REMARKS
CHARLOTTE AMA  PTCLDY    81  73  78 SE8       29.93F
CHRISTIANSTED  PTCLDY    79  72  78 SE6       29.94F
$$

HOURLY WEATHER ROUNDUP FOR THE NEWS MEDIA

CITY           SKY/WX    TMP DP  RH WIND       PRES   REMARKS
ORLANDO        CLOUDY    78  72  81 SW15      29.79F
NEW YORK       MOCLDY    44  34  67 NE5       29.69F
NEWARK         MOCLDY    50  29  44 NE12      29.68F
CHICAGO        CLEAR     39  30  70 N8        29.87R WCI  33
HARTFORD       PTCLDY    40  33  76 CALM      29.69F
BOSTON         CLOUDY    44  30  57 N8        29.70F
DALLAS         CLEAR     69  54  58 CALM      29.68S
PHILADELPHIA   MOCLDY    49  34  56 W6        29.69S
LOS ANGELES    CLEAR     58  50  75 W12       29.91R
WASHINGTON DC  CLOUDY    40  39  97 S7        29.68F


USA.gov is the U.S. government's official web portal to all federal, state and local government web resources and services.